Weather observations for the past three days for
Livingston Municipal Airport
Imperial (Metric)
Date Time (cdt) Wind (mph) Vis. (mi.) Weather Sky Cond. Temperature (ºF) Relative Humidity Wind Chill (°F) Heat Index (°F) Pressure Precipitation (in)
Air Dwpt 6 hour altimeter (in) sea level (mb) 1 hr 3 hr 6 hr
Max. Min.
13 17:15 N 5 10.00 Partly Cloudy SCT050 SCT065 84.2 66.2 55% 87 29.98 0.0
13 16:55 Calm 10.00 A Few Clouds FEW055 86 66.2 52% 88 29.98 0.0
13 16:35 Calm 10.00 Fair CLR 86 62.6 46% 87 29.98 0.0
13 16:15 W 7 9.00 A Few Clouds FEW050 FEW060 86 64.4 49% 87 29.99 0.0
13 15:50 Calm 6.00 A Few Clouds with Haze FEW050 FEW060 84.2 62.6 48% 85 29.99 0.0
13 15:35 Calm 10.00 A Few Clouds FEW060 86 62.6 46% 87 29.99 0.0
13 15:15 NW 8 10.00 Partly Cloudy SCT055 SCT065 86 64.4 49% 87 29.99 0.0
13 14:55 W 3 10.00 Partly Cloudy FEW050 SCT055 86 64.4 49% 87 29.99 0.0
13 14:35 SW 7 G 13 10.00 Partly Cloudy FEW050 SCT065 86 62.6 46% 87 30 0.0
13 14:15 SW 7 10.00 Partly Cloudy SCT050 SCT065 84.2 62.6 48% 85 30 0.0
13 13:50 Calm 10.00 Partly Cloudy SCT050 SCT060 84.2 60.8 45% 84 30 0.0
13 13:35 Vrbl 5 10.00 Partly Cloudy FEW050 SCT060 84.2 62.6 48% 85 30.01 0.0
13 13:15 Vrbl 3 10.00 Partly Cloudy SCT050 SCT060 84.2 62.6 48% 85 30.02 0.0
13 12:55 Calm 10.00 Partly Cloudy FEW048 SCT060 82.4 62.6 51% 83 30.02 0.0
13 12:35 SW 3 10.00 Fair CLR 82.4 62.6 51% 83 30.02 0.0
13 12:15 Vrbl 5 G 12 10.00 Fair CLR 84.2 62.6 48% 85 30.03 0.0
13 11:55 Vrbl 6 10.00 Fair CLR 82.4 62.6 51% 83 30.03 0.0
13 11:35 S 5 10.00 Fair CLR 82.4 64.4 55% 84 30.03 0.0
13 11:15 Vrbl 3 10.00 A Few Clouds FEW040 82.4 62.6 51% 83 30.03 0.0
13 10:55 S 7 10.00 A Few Clouds FEW039 FEW060 82.4 64.4 55% 84 30.04 0.0
13 10:15 Vrbl 5 10.00 Fair CLR 80.6 64.4 58% 82 30.04 0.0
13 09:55 Calm 9.00 Fair CLR 80.6 64.4 58% 82 30.04 0.0
13 09:30 Calm 10.00 Fair CLR 77 64.4 65% 79 30.04 0.0
13 09:15 Calm 10.00 Fair CLR 77 64.4 65% 79 30.04 0.0
13 08:55 Calm 10.00 Fair CLR 77 64.4 65% 79 30.04 0.0
13 08:35 SE 3 10.00 A Few Clouds FEW065 75.2 62.6 65% 77 30.04 0.0
13 08:15 Calm 10.00 Mostly Cloudy BKN065 75.2 62.6 65% 77 30.04 0.0
13 07:55 Calm 10.00 Mostly Cloudy BKN065 75.2 62.6 65% 77 30.04 0.0
13 07:35 Calm 10.00 Partly Cloudy SCT065 73.4 60.8 65% 30.03 0.0
13 06:55 Calm 6.00 Fair with Haze CLR 69.8 62.6 78% 30.02 0.0
13 06:35 Calm 8.00 Fair CLR 68 62.6 83% 30.02 0.0
13 06:15 Calm 7.00 Fair CLR 66.2 59 78% 30.01 0.0
13 05:55 Calm 6.00 Fair with Haze CLR 64.4 59 83% 30.01 0.0
13 05:35 Calm 9.00 Fair CLR 62.6 57.2 83% 30.01 0.0
13 05:15 Calm 8.00 Fair CLR 66.2 57.2 73% 30 0.0
13 04:55 Calm 10.00 Fair CLR 64.4 57.2 78% 30 0.0
13 04:35 Calm 10.00 A Few Clouds FEW048 FEW060 64.4 57.2 78% 29.99 0.0
13 04:15 Calm 9.00 Partly Cloudy SCT060 64.4 57.2 78% 29.99 0.0
13 03:55 Calm 10.00 Partly Cloudy FEW050 SCT065 64.4 57.2 78% 29.99 0.0
13 03:35 Calm 10.00 Mostly Cloudy FEW050 BKN065 64.4 57.2 78% 30 0.0
13 03:15 Calm 9.00 Overcast BKN049 OVC065 64.4 57.2 78% 30 0.0
13 02:55 Calm 10.00 Overcast OVC050 66.2 55.4 68% 29.99 0.0
13 02:30 E 3 10.00 Overcast OVC050 68 55.4 64% 29.99 0.0
13 02:15 Calm 10.00 Overcast OVC050 66.2 55.4 68% 29.99 0.0
13 01:55 Calm 10.00 Mostly Cloudy BKN049 68 55.4 64% 29.99 0.0
13 01:35 Calm 10.00 Fair CLR 68 55.4 64% 29.99 0.0
13 01:15 Calm 10.00 Fair CLR 68 55.4 64% 29.99 0.0
13 00:55 Vrbl 3 10.00 Fair CLR 68 55.4 64% 29.99 0.0
13 00:35 Calm 10.00 Fair CLR 68 55.4 64% 30 0.0
13 00:15 E 3 10.00 Fair CLR 68 55.4 64% 30 0.0
12 23:55 SE 5 10.00 Fair CLR 68 55.4 64% 30.01 0.0
12 23:35 Calm 10.00 Fair CLR 66.2 57.2 73% 30.01 0.0
12 23:15 Calm 10.00 Fair CLR 68 57.2 69% 30.01 0.0
12 22:55 Calm 10.00 Fair CLR 68 57.2 69% 30.01 0.0
12 22:35 Calm 10.00 Fair CLR 66.2 57.2 73% 30.01 0.0
12 22:15 E 3 10.00 Fair CLR 68 57.2 69% 30.02 0.0
12 21:55 Calm 10.00 Fair CLR 66.2 57.2 73% 30.02 0.0
12 21:15 NE 5 10.00 Fair CLR 69.8 57.2 64% 30.01 0.0
12 20:55 NE 5 10.00 Fair CLR 69.8 57.2 64% 30.01 0.0
12 20:35 NE 5 10.00 Fair CLR 69.8 57.2 64% 30.01 0.0
12 20:15 NE 3 10.00 Fair CLR 71.6 57.2 61% 30.01 0.0
12 19:55 N 5 10.00 Fair CLR 71.6 57.2 61% 30.01 0.0
12 19:35 N 6 10.00 Fair CLR 73.4 57.2 57% 30.02 0.0
12 19:15 N 6 10.00 Fair CLR 73.4 59 61% 30.01 0.0
12 18:55 N 6 10.00 Fair CLR 75.2 59 57% 78 30.02 0.0
12 18:35 N 5 10.00 Fair CLR 75.2 57.2 54% 78 30.01 0.0
12 18:10 N 6 10.00 Fair CLR 75.2 57.2 54% 78 30 0.0
12 17:55 N 6 10.00 Fair CLR 75.2 57.2 54% 78 30 0.0
12 17:35 N 5 10.00 Fair CLR 75.2 57.2 54% 78 30 0.0
12 17:15 N 6 10.00 Fair CLR 75.2 55.4 50% 78 30 0.0
12 16:55 Calm 9.00 Fair CLR 75.2 57.2 54% 78 30.01 0.0
12 16:35 N 6 10.00 Fair CLR 77 57.2 51% 79 30.01 0.0
12 16:15 Calm 9.00 Fair CLR 77 57.2 51% 79 30.01 0.0
12 15:55 Vrbl 3 10.00 Fair CLR 78.8 55.4 45% 79 30.01 0.0
12 15:35 S 3 10.00 Fair CLR 78.8 57.2 48% 80 30.01 0.0
12 15:15 Calm 10.00 Fair CLR 78.8 55.4 45% 79 30.01 0.0
12 14:55 Calm 10.00 Fair CLR 78.8 55.4 45% 79 30.02 0.0
12 14:35 Calm 10.00 Fair CLR 77 55.4 47% 79 30.02 0.0
12 14:15 Calm 10.00 Fair CLR 78.8 55.4 45% 79 30.02 0.0
12 13:55 Vrbl 3 10.00 Fair CLR 77 55.4 47% 79 30.03 0.0
12 13:35 Vrbl 3 10.00 Fair CLR 77 53.6 44% 78 30.03 0.0
12 13:15 W 3 10.00 Fair CLR 75.2 51.8 44% 78 30.04 0.0
12 12:35 Vrbl 6 10.00 Fair CLR 75.2 55.4 50% 78 30.05 0.0
12 12:15 Calm 10.00 Fair CLR 73.4 53.6 50% 30.06 0.0
12 11:55 Vrbl 5 10.00 Fair CLR 73.4 55.4 53% 30.06 0.0
12 11:35 Calm 10.00 Fair CLR 73.4 55.4 53% 30.06 0.0
12 11:15 NE 6 10.00 Fair CLR 71.6 55.4 57% 30.06 0.0
12 10:55 N 6 10.00 Fair CLR 71.6 55.4 57% 30.06 0.0
12 10:35 Vrbl 5 10.00 Fair CLR 71.6 55.4 57% 30.06 0.0
12 10:15 E 7 9.00 Fair CLR 69.8 55.4 60% 30.06 0.0
12 09:35 Calm 10.00 Fair CLR 68 55.4 64% 30.07 0.0
12 09:15 E 5 9.00 Fair CLR 68 57.2 69% 30.06 0.0
12 08:55 E 5 10.00 Fair CLR 66.2 55.4 68% 30.06 0.0
12 08:35 NE 6 10.00 Fair CLR 66.2 55.4 68% 30.06 0.0
12 08:15 NE 6 10.00 Fair CLR 64.4 55.4 73% 30.06 0.0
12 07:55 NE 6 10.00 Fair CLR 62.6 53.6 73% 30.05 0.0
12 07:35 NE 3 10.00 Fair CLR 62.6 53.6 73% 30.05 0.0
12 07:15 E 5 10.00 Fair CLR 60.8 53.6 77% 30.05 0.0
12 06:55 NE 3 10.00 Fair CLR 59 51.8 77% 30.05 0.0
12 06:35 NE 6 10.00 Fair CLR 59 51.8 77% 30.05 0.0
12 06:15 N 5 10.00 Fair CLR 55.4 51.8 88% 30.04 0.0
12 05:55 NE 5 10.00 Fair CLR 57.2 50 77% 30.04 0.0
12 05:30 NE 5 10.00 Fair CLR 57.2 50 77% 30.03 0.0
12 05:15 Calm 10.00 Fair CLR 59 50 72% 30.02 0.0
12 04:55 E 5 10.00 Fair CLR 59 50 72% 30.02 0.0
12 04:35 Calm 10.00 Fair CLR 57.2 50 77% 30.01 0.0
12 04:15 E 3 10.00 Fair CLR 55.4 50 82% 30.01 0.0
12 03:55 E 3 10.00 Fair CLR 55.4 50 82% 30.02 0.0
12 03:35 Calm 10.00 Fair CLR 57.2 50 77% 30.02 0.0
12 03:15 Calm 10.00 Fair CLR 59 50 72% 30.01 0.0
12 02:55 Calm 10.00 Fair CLR 59 50 72% 30.01 0.0
12 02:35 Calm 10.00 Fair CLR 59 51.8 77% 30 0.0
12 02:15 Calm 10.00 Fair CLR 57.2 51.8 82% 30 0.0
12 01:55 Calm 10.00 Fair CLR 57.2 51.8 82% 30 0.0
12 01:35 Calm 10.00 Fair CLR 57.2 51.8 82% 30 0.0
12 01:15 Calm 10.00 Fair CLR 59 53.6 82% 30.01 0.0
12 00:55 NE 3 10.00 Fair CLR 57.2 51.8 82% 30.02 0.0
12 00:35 Calm 10.00 Fair CLR 59 51.8 77% 30.02 0.0
12 00:15 NE 3 10.00 Fair CLR 59 53.6 82% 30.02 0.0
11 23:55 Calm 10.00 Fair CLR 60.8 51.8 72% 30.03 0.0
11 23:35 N 3 10.00 Fair CLR 59 53.6 82% 30.02 0.0
11 23:15 NE 3 10.00 Fair CLR 59 53.6 82% 30.02 0.0
11 22:55 Calm 10.00 Fair CLR 60.8 51.8 72% 30.02 0.0
11 22:35 Calm 10.00 Fair CLR 60.8 51.8 72% 30.02 0.0
11 22:15 N 3 10.00 Fair CLR 60.8 53.6 77% 30.02 0.0
11 21:55 Calm 10.00 Fair CLR 62.6 51.8 68% 30.02 0.0
11 21:35 N 3 10.00 Fair CLR 62.6 51.8 68% 30.01 0.0
11 21:15 Calm 10.00 Fair CLR 62.6 51.8 68% 30 0.0
11 20:55 Calm 10.00 Fair CLR 64.4 51.8 64% 30 0.0
11 20:35 N 3 10.00 Fair CLR 64.4 51.8 64% 29.99 0.0
11 20:15 N 5 10.00 Fair CLR 64.4 51.8 64% 29.99 0.0
11 19:55 Calm 10.00 Fair CLR 66.2 51.8 60% 29.99 0.0
11 19:30 N 3 10.00 Fair CLR 68 51.8 56% 29.98 0.0
11 19:15 N 5 10.00 Fair CLR 68 53.6 60% 29.98 0.0
11 18:55 N 5 10.00 Fair CLR 69.8 51.8 53% 29.97 0.0
11 18:35 NE 3 10.00 Fair CLR 71.6 50 47% 29.97 0.0
11 18:15 NE 5 10.00 Fair CLR 71.6 50 47% 29.97 0.0
11 17:55 N 5 10.00 Fair CLR 71.6 50 47% 29.97 0.0
11 17:30 N 6 10.00 Fair CLR 71.6 48.2 44% 29.97 0.0
11 17:15 NE 6 10.00 Fair CLR 71.6 48.2 44% 29.98 0.0
11 16:55 N 6 10.00 Fair CLR 71.6 50 47% 29.98 0.0
11 16:35 N 5 G 12 10.00 Fair CLR 71.6 50 47% 29.98 0.0
11 16:15 Vrbl 6 10.00 Fair CLR 71.6 50 47% 29.98 0.0
11 15:55 NE 8 10.00 Fair CLR 71.6 50 47% 29.98 0.0
11 15:30 NW 9 10.00 Fair CLR 71.6 51.8 50% 29.98 0.0
11 15:15 N 9 10.00 Fair CLR 71.6 50 47% 29.98 0.0
11 14:55 Vrbl 7 G 14 10.00 Fair CLR 71.6 50 47% 29.98 0.0
11 14:35 N 6 10.00 Fair CLR 71.6 50 47% 29.99 0.0
11 14:15 N 8 G 15 10.00 Fair CLR 71.6 51.8 50% 29.99 0.0
11 13:55 N 12 10.00 Fair CLR 71.6 51.8 50% 29.99 0.0
11 13:35 N 10 10.00 Fair CLR 69.8 51.8 53% 30 0.0
11 13:10 N 7 G 13 10.00 Fair CLR 69.8 51.8 53% 30 0.0
11 12:55 Vrbl 5 G 13 10.00 Fair CLR 69.8 51.8 53% 30 0.0
11 12:35 NE 7 G 13 10.00 Fair CLR 68 51.8 56% 30.01 0.0
11 12:15 Vrbl 3 10.00 Fair CLR 68 51.8 56% 30.01 0.0
11 11:55 Vrbl 5 G 12 10.00 Fair CLR 68 51.8 56% 30.01 0.0
11 11:35 Vrbl 6 10.00 Fair CLR 68 53.6 60% 30.01 0.0
11 11:15 NE 3 G 13 10.00 Fair CLR 66.2 51.8 60% 30.01 0.0
11 10:55 Vrbl 6 10.00 Fair CLR 66.2 51.8 60% 30.01 0.0
11 10:35 N 7 10.00 Fair CLR 64.4 51.8 64% 30.01 0.0
11 10:15 Vrbl 7 10.00 Fair CLR 64.4 53.6 68% 30.01 0.0
11 09:55 NE 7 G 14 10.00 A Few Clouds FEW023 62.6 51.8 68% 30.01 0.0
11 09:35 E 7 G 14 10.00 A Few Clouds FEW022 62.6 51.8 68% 30.01 0.0
11 09:10 NE 7 10.00 A Few Clouds FEW019 62.6 53.6 73% 30.02 0.0
11 08:55 E 7 10.00 Fair CLR 60.8 51.8 72% 30.02 0.0
11 08:35 NE 8 10.00 Fair CLR 59 53.6 82% 30.02 0.0
11 08:15 NE 7 10.00 Fair CLR 59 51.8 77% 30.01 0.0
11 07:55 NE 8 10.00 Fair CLR 57.2 53.6 88% 30.01 0.0
11 07:35 NE 6 10.00 Fair CLR 55.4 51.8 88% 30.01 0.0
11 07:15 NE 6 10.00 Fair CLR 55.4 53.6 94% 30 0.0
11 06:50 NE 5 10.00 Fair CLR 55.4 51.8 88% 30 0.0
11 06:35 NE 6 10.00 Fair CLR 55.4 51.8 88% 30 0.0
11 06:15 N 7 10.00 Fair CLR 53.6 50 88% 30 0.0
11 05:35 N 5 10.00 Fair CLR 51.8 50 94% 30 0.0
11 05:15 N 3 10.00 Fair CLR 51.8 50 94% 29.99 0.0
11 04:50 N 3 10.00 Fair CLR 51.8 48.2 88% 29.98 0.0
11 04:35 N 3 10.00 Fair CLR 53.6 50 88% 29.98 0.0
11 04:15 N 5 10.00 Fair CLR 53.6 50 88% 29.97 0.0
11 03:55 Calm 10.00 Fair CLR 53.6 50 88% 29.97 0.0
11 03:35 NE 5 10.00 Fair CLR 53.6 50 88% 29.97 0.0
11 03:15 NE 6 10.00 Fair CLR 53.6 50 88% 29.97 0.0
11 02:55 NE 7 10.00 Fair CLR 53.6 50 88% 29.96 0.0
11 02:35 NE 6 10.00 Fair CLR 55.4 50 82% 29.96 0.0
11 02:15 NE 5 10.00 Fair CLR 55.4 50 82% 29.96 0.0
11 01:55 NE 5 10.00 Fair CLR 55.4 51.8 88% 29.95 0.0
11 01:35 NE 5 10.00 Fair CLR 55.4 51.8 88% 29.95 0.0
11 01:15 NE 5 10.00 Fair CLR 55.4 51.8 88% 29.96 0.0
11 00:55 NE 6 10.00 Fair CLR 57.2 51.8 82% 29.96 0.0
11 00:30 N 8 G 15 10.00 Fair CLR 57.2 51.8 82% 29.96 0.0
11 00:15 N 9 10.00 Fair CLR 59 51.8 77% 29.96 0.0
10 23:55 N 12 10.00 Fair CLR 59 51.8 77% 29.96 0.0
10 23:35 N 10 10.00 Fair CLR 60.8 53.6 77% 29.96 0.0
10 23:15 N 10 10.00 Fair CLR 60.8 53.6 77% 29.95 0.0
10 22:55 N 9 10.00 Fair CLR 60.8 53.6 77% 29.95 0.0
10 22:35 N 8 10.00 Fair CLR 62.6 53.6 73% 29.95 0.0
10 22:10 N 8 10.00 Fair CLR 62.6 55.4 77% 29.94 0.0
10 21:55 N 8 10.00 Fair CLR 62.6 53.6 73% 29.93 0.0
10 21:35 N 7 G 17 10.00 Fair CLR 64.4 55.4 73% 29.93 0.0
10 21:15 N 9 G 15 10.00 Fair CLR 64.4 55.4 73% 29.92 0.0
10 20:55 N 9 G 16 10.00 Fair CLR 64.4 55.4 73% 29.91 0.0
10 20:35 N 7 10.00 Fair CLR 66.2 55.4 68% 29.9 0.0
10 20:10 N 10 10.00 Fair CLR 66.2 55.4 68% 29.9 0.0
10 19:55 N 8 10.00 Fair CLR 68 55.4 64% 29.89 0.0
10 19:35 N 8 10.00 Fair CLR 68 55.4 64% 29.89 0.0
10 19:15 N 5 10.00 Fair CLR 69.8 55.4 60% 29.88 0.0
10 18:55 N 8 G 14 10.00 A Few Clouds FEW065 69.8 55.4 60% 29.88 0.0
10 18:35 N 8 10.00 Mostly Cloudy FEW047 BKN065 71.6 55.4 57% 29.88 0.0
10 18:15 Vrbl 6 G 12 10.00 Mostly Cloudy SCT047 BKN065 71.6 55.4 57% 29.88 0.0
10 17:55 NW 6 10.00 Partly Cloudy FEW049 SCT065 71.6 53.6 53% 29.87 0.0
10 17:35 Vrbl 6 10.00 Mostly Cloudy FEW050 BKN065 75.2 53.6 47% 78 29.87 0.0
Date Time (cdt) Wind (mph) Vis. (mi.) Weather Sky Cond. Air Dwpt Max. Min. Relative Humidity Wind Chill (°F) Heat Index (°F) altimeter (in) sea level (mb) 1 hr 3 hr 6 hr
6 hour
Temperature (ºF) Pressure Precipitation (in)